TimeEDT,TemperatureF,Dew PointF,Humidity,Sea Level PressureIn,VisibilityMPH,Wind Direction,Wind SpeedMPH,Gust SpeedMPH,PrecipitationIn,Events,Conditions,WindDirDegrees,DateUTC
12:53 AM,59.0,45.0,60,29.96,10.0,NNW,9.2,-,N/A,,Mostly Cloudy,330,2013-07-08 04:53:00
1:53 AM,57.0,46.9,69,29.97,10.0,NW,4.6,-,N/A,,Overcast,320,2013-07-08 05:53:00
2:53 AM,57.0,46.9,69,29.98,10.0,WNW,5.8,-,N/A,,Clear,300,2013-07-08 06:53:00
3:53 AM,55.0,46.9,74,29.98,10.0,NW,4.6,-,N/A,,Partly Cloudy,320,2013-07-08 07:53:00
4:53 AM,54.0,46.9,77,30.00,10.0,NW,6.9,-,N/A,,Partly Cloudy,320,2013-07-08 08:53:00
5:53 AM,54.0,48.0,80,30.01,10.0,North,5.8,-,N/A,,Clear,350,2013-07-08 09:53:00
6:53 AM,55.9,46.9,72,30.02,10.0,NNW,12.7,-,N/A,,Clear,340,2013-07-08 10:53:00
7:53 AM,57.9,48.0,70,30.05,10.0,NNW,9.2,-,N/A,,Clear,330,2013-07-08 11:53:00
8:53 AM,62.1,46.9,58,30.04,10.0,North,5.8,-,N/A,,Clear,350,2013-07-08 12:53:00
9:53 AM,63.0,46.0,54,30.04,10.0,Variable,4.6,-,N/A,,Clear,0,2013-07-08 13:53:00
10:53 AM,66.9,44.1,44,30.04,10.0,WNW,8.1,-,N/A,,Clear,300,2013-07-08 14:53:00
11:53 AM,69.1,43.0,39,30.04,10.0,West,8.1,-,N/A,,Clear,280,2013-07-08 15:53:00
12:53 PM,71.1,43.0,36,30.04,10.0,NNW,10.4,-,N/A,,Clear,330,2013-07-08 16:53:00
1:53 PM,72.0,43.0,35,30.03,10.0,NW,6.9,-,N/A,,Clear,310,2013-07-08 17:53:00
2:53 PM,73.0,44.1,35,30.03,10.0,NW,10.4,-,N/A,,Clear,320,2013-07-08 18:53:00
3:53 PM,73.9,45.0,35,30.03,10.0,NNW,8.1,-,N/A,,Clear,330,2013-07-08 19:53:00
4:53 PM,73.0,39.9,30,30.03,10.0,NNW,9.2,-,N/A,,Clear,340,2013-07-08 20:53:00
5:53 PM,72.0,45.0,38,30.04,10.0,North,8.1,-,N/A,,Clear,10,2013-07-08 21:53:00
6:53 PM,70.0,45.0,41,30.04,10.0,NNW,5.8,-,N/A,,Clear,340,2013-07-08 22:53:00
7:53 PM,64.9,45.0,48,30.05,10.0,North,6.9,-,N/A,,Clear,360,2013-07-08 23:53:00
8:53 PM,61.0,43.0,52,30.06,10.0,North,5.8,-,N/A,,Clear,360,2013-07-09 00:53:00
9:53 PM,60.1,41.0,49,30.08,10.0,North,4.6,-,N/A,,Clear,10,2013-07-09 01:53:00
10:53 PM,60.1,41.0,49,30.09,10.0,North,3.5,-,N/A,,Clear,360,2013-07-09 02:53:00
11:53 PM,55.9,41.0,57,30.10,10.0,NNW,4.6,-,N/A,,Clear,340,2013-07-09 03:53:00